Torna al catalogo

TITAN 3C TRANSTAGE DEB

LostHEO
NORAD 27791·DEBRIS·🇺🇸 United States

Lanciato Dec 21, 1965 da Cape Canaveral Space Force Station

Loading…

Prossimi Passaggi (prossime 24 ore)

TLE

ObsoletoSource: Space-Track

Epoca: May 3, 2026, 09:25 UTC

1 27791U 65108BF  26123.39279884 -.00000901  00000-0 -23235-1 0  9998
2 27791  26.5095 226.9567 6777535 202.8018 101.2646  2.63371525  2458

Traccia TITAN 3C TRANSTAGE DEB in tempo reale con AllMySat

Download on the App Store